User: anonymous   Login
Location: Kaarina
(60.4167°N, 22.4167°E)
Time: 20:09:19
(UTC+03:00)
Language:

Helios 1B rocket - Orbit

View from above orbital plane
View from above orbital plane
View from above satellite
View from above satellite

Ground track
Ground track

The orbit data is extracted from the following two-line orbital elements,

1 25979U 99064C   19287.88670722 +.00000767 +00000-0 +74316-4 0  9992
2 25979 098.1486 191.1079 0007306 038.1826 321.9910 14.95818136077164
Epoch (UTC): 14 October 2019 21:16:51
Eccentricity: 0.0007306
inclination: 98.1486°
perigee height: 575 km
apogee height: 585 km
right ascension of ascending node: 191.1079°
argument of perigee: 38.1826°
revolutions per day: 14.95818136
mean anomaly at epoch: 321.9910°
orbit number at epoch: 7716

The dashed part of the orbit path shows where the satellite is in the earth's shadow,  

DLR